Location: Oshawa
(43.9000°N, 78.8670°W)
Time: 05:14:16
(UTC-04:00)

Explorer 7 - Visible Passes

Search period start: 06 July 2015 00:00
Search period end: 16 July 2015 00:00
Orbit: 488 x 693 km, 50.3° (Epoch: 05 July)

Date Brightness Start Highest point End Pass type
(mag) Time Alt. Az. Time Alt. Az. Time Alt. Az.
06 Jul 8.8 03:37:54 17° SSE 03:39:55 22° SE 03:43:41 10° E visible
07 Jul 8.2 03:45:09 22° S 03:47:27 34° SE 03:51:50 10° ENE visible
08 Jul 9.6 02:15:51 11° ESE 02:15:51 11° ESE 02:16:28 10° ESE visible
08 Jul 7.6 03:52:20 25° SSW 03:55:02 53° SE 03:59:44 10° ENE visible
09 Jul 9.0 02:22:58 19° ESE 02:22:58 19° ESE 02:25:47 10° E visible
09 Jul 7.2 03:59:27 22° SW 04:02:40 78° SSE 04:07:29 10° ENE visible
10 Jul 8.3 02:30:02 30° SE 02:30:02 30° SE 02:34:03 10° ENE visible
10 Jul 7.3 04:06:30 17° WSW 04:10:22 76° NNW 04:15:12 10° ENE visible
11 Jul 7.6 02:37:02 45° SSE 02:37:18 46° SE 02:42:00 10° ENE visible
11 Jul 7.7 04:13:30 11° W 04:18:08 58° NNW 04:22:53 10° ENE visible
12 Jul 9.7 01:07:30 11° E 01:07:30 11° E 01:07:40 10° E visible
12 Jul 7.2 02:43:58 55° SSW 02:44:54 69° SE 02:49:47 10° ENE visible
12 Jul 8.1 04:21:09 10° W 04:25:57 47° NNW 04:30:35 10° ENE visible
13 Jul 9.1 01:14:23 18° E 01:14:23 18° E 01:16:07 10° E visible
13 Jul 7.2 02:50:50 42° WSW 02:52:32 85° NNW 02:57:28 10° ENE visible
13 Jul 8.4 04:29:06 10° W 04:33:48 41° N 04:38:20 10° ENE visible
14 Jul 8.4 01:21:10 30° E 01:21:10 30° E 01:24:08 10° ENE visible
14 Jul 7.6 02:57:37 27° W 03:00:16 64° NNW 03:05:08 10° ENE visible
14 Jul 8.6 04:37:02 10° WNW 04:41:40 38° N 04:46:09 10° ENE visible
15 Jul 7.6 01:27:53 51° ESE 01:27:53 51° ESE 01:31:57 10° ENE visible
15 Jul 8.0 03:04:20 17° W 03:08:02 50° NNW 03:12:48 10° ENE visible
15 Jul 8.6 04:44:54 10° WNW 04:49:33 39° N 04:54:01 10° ENE visible
15 Jul 9.7 23:58:02 10° E 23:58:02 10° E 23:58:03 10° E visible
